sat.trackr.live / text

‹ back to catalog

STARLINK-1553

NORAD 46348 · 2020-062Z

PAYLOAD ACTIVE UNKNOWN

§ Identity

Operator
Country
US
Launch date
2020-09-03
Launch site
AFETR
Launch vehicle
Mass (kg)
RCS (m²)

Purposes: comms

External: N2YO · Heavens-Above · Gunter

§ Orbital elements

Epoch: 2026-09-03T19:41:12.354432Z

Period
93.15 min
Inclination
53.0334°
Eccentricity
0.0003865
Mean motion
15.45845304 rev/d
Perigee alt
426.3 km
Apogee alt
431.5 km
Semi-major
6,807.0 km
B*
4.4883e-4
RAAN
183.0201°
Arg perigee
44.9533°
Mean anomaly
315.1786°
Rev number
33,276

§ Raw data

STARLINK-15531 46348U 20062Z   26246.82028188  .00021767  00000+0  44883-3 0  99942 46348  53.0334 183.0201 0003865  44.9533 315.1786 15.45845304332761

JSON: /api/v1/satellites/46348 · /tle

For live sub-satellite position, see the globe view (requires WebGL).

§ Visibility from observer

Set your observer location to see the next 7 days of passes ≥ 10°. The values pass through the URL so the page stays shareable.

No JS? Fill the form by hand. The geolocation button needs JavaScript.